Karachi/Jinnah International Airport

Airport
ICAO code: 
OPKC
IATA Code: 
KHI
Summary
ICAO Region: 
MID
Territory: 
Location: 
Karachi, Sindh
Serving: 
Karachi
Elevation: 
100 ft
Coordinates: 
Aerial View: 
24° 54' 16.752" N, 67° 9' 26.417" E
Metar
Observation
OPKC 201030Z 24018KT 4000 BLDU FEW020 33/23 Q1001 TEMPO 25025KT
Station
Karachi Airport
Date/Time
2022-05-20 10:30:00
Wind direction
240°
Wind speed
18 kts
Lowest cloud amount
few clouds
Temperature
33°C
Dew point
23°C
Humidity
55%
QNH
1001 hPa
Weather condition
n/a

International airport serving Karachi, Pakistan.

Climatology

Mild Desert Climate (Köppen climate classification BWh).

Karachi tends to have a relatively mild, arid climate with low average precipitation levels (approximately 250 mm per annum), the bulk of which occurs during the July-August monsoon season. Winters are mild & dry, while the summers are hot & humid; the proximity to the sea maintains humidity levels at a near-constant high and cool sea breezes relieve the heat of the summer months.

Runways

Designator Length Width Surface Rops
07L/25R 3200 46 CON Yes/Yes
07R/25L 3400 46 CON Yes/Yes
Airport map: 
Aerial View: 

SKYbrary Partners:

Safety knowledge contributed by: